Weather History for Wheeler AAF, HI

Change the Weather History Date:

Tuesday, July 16, 2013

  Actual Average Record
Temperature  
Mean Temperature 74 °F -  
Max Temperature 83 °F 79 °F 86 °F (2004)
Min Temperature 66 °F 67 °F 65 °F (2008)
Cooling Degree Days 10    
Growing Degree Days 24 (Base 50)    
Moisture  
Dew Point 64 °F    
Average Humidity 70    
Maximum Humidity 90    
Minimum Humidity 49    
Precipitation  
Precipitation 0.00 in - - ()
Sea Level Pressure  
Sea Level Pressure 29.96 in    
Wind  
Wind Speed 6 mph (NE)    
Max Wind Speed 18 mph    
Max Gust Speed 28 mph    
Visibility 10 miles    
Events      
Averages and records for this station are not official NWS values.
T = Trace of Precipitation, MM = Missing Value Source: NWS Daily Summary

Daily Weather History Graph

Daily Weather History Graph

Search for Another Location

Airport:

Trip Planner

Search our weather history database for the weather conditions in past years. The results will help you decide how hot, cold, wet, or windy it might be!

Date:

Astronomy

Jul. 16, 2013 Rise Set
Actual Time 5:59 AM HST 7:17 PM HST
Civil Twilight 5:34 AM HST 7:41 PM HST
Nautical Twilight 5:05 AM HST 8:10 PM HST
Astronomical Twilight 4:35 AM HST 8:40 PM HST
Moon 1:26 PM HST (7/16) 12:15 AM HST (7/16)
Length of Visible Light 14h 06m
Length of Day
13h 18m
First Quarter, 59% of the Moon is Illuminated
Jul 16
First Quarter
Jul 22
Full
Jul 29
Last Quarter
Aug 6
New
Aug 14
First Quarter

Hourly Weather History & Observations

Time (HST) Temp. Heat Index Dew Point Humidity Pressure Visibility Wind Dir Wind Speed Gust Speed Precip Events Conditions
12:55 AM 68.0 °F - 62.6 °F 83% 29.98 in 10.0 mi WNW 3.5 mph - N/A   Clear
1:55 AM 69.6 °F - 64.2 °F 83% 29.96 in 10.0 mi Calm Calm - N/A   Clear
2:55 AM 66.9 °F - 62.8 °F 87% 29.96 in 10.0 mi WNW 3.5 mph - N/A   Clear
3:55 AM 67.1 °F - 63.3 °F 88% 29.96 in 10.0 mi WNW 3.5 mph - N/A   Overcast
4:55 AM 68.4 °F - 64.0 °F 86% 29.95 in 10.0 mi Calm Calm - N/A   Clear
5:55 AM 68.2 °F - 64.2 °F 87% 29.97 in 10.0 mi Calm Calm - N/A   Clear
6:55 AM 67.6 °F - 64.8 °F 90% 29.98 in 10.0 mi NW 3.5 mph - N/A   Partly Cloudy
8:55 AM 77.0 °F - 65.8 °F 68% 29.99 in 10.0 mi ENE 8.1 mph - N/A   Scattered Clouds
9:55 AM 79.5 °F - 64.9 °F 61% 29.99 in 10.0 mi ENE 11.5 mph - N/A   Scattered Clouds
10:55 AM 80.8 °F 82.0 °F 63.0 °F 54% 29.98 in 10.0 mi East 12.7 mph - N/A   Overcast
11:55 AM 82.4 °F 83.7 °F 63.9 °F 53% 29.96 in 10.0 mi East 18.4 mph - N/A   Mostly Cloudy
12:55 PM 82.9 °F 83.8 °F 62.6 °F 50% 29.95 in 10.0 mi East 15.0 mph 21.9 mph N/A   Mostly Cloudy
1:55 PM 82.4 °F 83.0 °F 61.5 °F 49% 29.94 in 10.0 mi ENE 17.3 mph 27.6 mph N/A   Partly Cloudy
2:55 PM 83.5 °F 84.3 °F 62.4 °F 49% 29.93 in 10.0 mi East 16.1 mph 21.9 mph N/A   Scattered Clouds
3:55 PM 82.8 °F 83.8 °F 62.8 °F 51% 29.92 in 10.0 mi East 12.7 mph 20.7 mph N/A   Partly Cloudy
4:55 PM 80.8 °F 81.9 °F 62.2 °F 53% 29.92 in 10.0 mi ENE 9.2 mph - N/A   Scattered Clouds
5:55 PM 79.2 °F - 63.5 °F 59% 29.92 in 10.0 mi East 15.0 mph - N/A   Clear
6:55 PM 76.5 °F - 63.1 °F 63% 29.94 in 10.0 mi ENE 10.4 mph - N/A   Clear
7:55 PM 74.5 °F - 64.2 °F 70% 29.96 in 10.0 mi Variable 3.5 mph - N/A   Clear
8:55 PM 73.9 °F - 64.4 °F 72% 29.97 in 10.0 mi ENE 4.6 mph - N/A   Clear
9:55 PM 71.8 °F - 64.0 °F 77% 29.98 in 10.0 mi Variable 3.5 mph - N/A   Clear
10:55 PM 69.6 °F - 63.9 °F 82% 29.98 in 10.0 mi Calm Calm - N/A   Clear
11:55 PM 68.0 °F - 63.9 °F 87% 29.97 in 10.0 mi West 3.5 mph - N/A   Clear